FW3337 Weather Reports


time (UTC)temp
C
wind
direction
speed
KPH
gust
KPH
rain 1hr
cm
rain 24hr
cm
rain mn
cm
humidity
%
barometer
mb
20260510220014 20 237 1.6 6.4 0.00 0.20 0.00 62 1012.4
20260510214505 20 233 3.2 14.5 0.00 0.20 0.00 62 1012.7
20260510213005 20 229 1.6 11.3 0.00 0.20 0.00 61 1012.5
20260510211506 20 255 1.6 8.0 0.00 0.20 0.00 58 1012.4
20260510210004 20 228 0.0 6.4 0.00 0.48 0.00 58 1012.2
20260510204504 20 248 1.6 14.5 0.00 0.48 0.00 55 1011.9
20260510203004 20 228 1.6 17.7 0.00 0.48 0.00 53 1012.0
20260510201502 20 183 4.8 22.5 0.00 0.48 0.00 53 1012.0
20260510200002 20 231 1.6 14.5 0.00 0.56 0.00 55 1012.1
20260510194701 21 218 8.0 19.3 0.00 0.56 0.00 55 1012.0
20260510193107 21 276 3.2 12.9 0.00 0.56 0.00 56 1012.0
20260510191605 21 251 6.4 14.5 0.00 0.56 0.00 57 1012.0
20260510190100 21 212 8.0 16.1 0.00 0.56 0.00 59 1012.1
20260510184557 21 257 0.0 14.5 0.00 0.64 0.00 64 1012.2
20260510183055 21 286 4.8 9.7 0.00 0.64 0.00 62 1012.2
20260510181555 21 231 3.2 14.5 0.00 0.64 0.00 67 1012.2
20260510180103 21 227 1.6 8.0 0.00 0.64 0.00 68 1012.1
20260510174550 21 224 1.6 8.0 0.00 0.64 0.00 70 1012.0
20260510173050 21 267 0.0 8.0 0.00 0.64 0.00 71 1011.9
20260510171548 21 222 0.0 6.4 0.00 0.64 0.00 71 1011.9
20260510170050 20 205 1.6 6.4 0.00 0.64 0.00 72 1012.2
20260510164550 20 236 1.6 6.4 0.00 0.64 0.00 74 1012.3
20260510163039 19 256 1.6 8.0 0.00 0.64 0.00 76 1012.5
20260510161536 18 222 1.6 11.3 0.00 0.64 0.00 78 1012.4
20260510160034 18 216 0.0 6.4 0.00 0.64 0.00 78 1012.5
20260510154544 17 127 1.6 6.4 0.00 0.64 0.00 79 1012.7
20260510153027 17 195 0.0 6.4 0.00 0.64 0.00 83 1012.7
20260510151523 16 185 0.0 9.7 0.00 0.64 0.00 85 1012.8
20260510150020 15 247 0.0 4.8 0.00 0.64 0.00 87 1013.0
20260510144523 15 211 0.0 8.0 0.00 0.64 0.00 88 1012.9
20260510143013 14 190 0.0 6.4 0.00 0.64 0.00 93 1013.0
20260510141510 13 214 1.6 8.0 0.00 0.64 0.00 94 1012.9
20260510140009 12 205 1.6 4.8 0.00 0.64 0.00 96 1012.8
20260510134504 12 205 0.0 3.2 0.00 0.64 0.00 96 1012.9
20260510133001 12 205 0.0 4.8 0.00 0.64 0.00 97 1013.0
20260510131600 11 289 0.0 3.2 0.00 0.64 0.00 97 1012.8
20260510130112 11 289 0.0 3.2 0.00 0.64 0.00 96 1012.6
20260510124602 11 289 0.0 0.0 0.00 0.66 0.00 97 1012.5
20260510123057 11 289 0.0 0.0 0.00 0.66 0.00 97 1012.6
20260510121553 11 289 0.0 0.0 0.00 0.66 0.00 97 1012.3
20260510120052 11 289 0.0 0.0 0.00 0.66 0.00 97 1012.0
20260510114550 10 289 0.0 0.0 0.00 0.66 0.00 97 1012.1
20260510113056 10 289 0.0 0.0 0.00 0.66 0.00 97 1012.1
20260510111546 10 289 0.0 0.0 0.00 0.66 0.00 97 1011.9
20260510110050 10 289 0.0 1.6 0.00 0.66 0.00 97 1011.5
20260510104545 10 289 0.0 0.0 0.00 0.66 0.00 97 1011.2
20260510103044 10 289 0.0 0.0 0.00 0.66 0.00 97 1011.4
20260510101553 10 289 0.0 0.0 0.00 0.66 0.00 96 1011.3
20260510100042 10 289 0.0 0.0 0.00 0.66 0.00 96 1011.3
20260510094546 10 289 0.0 0.0 0.00 0.66 0.00 96 1011.3
20260510093045 10 289 0.0 0.0 0.00 0.66 0.00 96 1011.2
20260510091544 10 289 0.0 0.0 0.00 0.66 0.00 96 1011.4
20260510090041 10 289 0.0 0.0 0.00 0.66 0.00 96 1011.4
20260510084542 10 289 0.0 0.0 0.00 0.66 0.00 96 1011.4
20260510083040 10 289 0.0 0.0 0.00 0.66 0.00 96 1011.5
20260510081539 10 289 0.0 1.6 0.00 0.66 0.00 96 1011.6
20260510080043 10 289 0.0 3.2 0.00 0.66 0.00 96 1011.6
20260510074542 10 289 1.6 4.8 0.00 0.66 0.00 96 1011.6
20260510073037 10 267 0.0 0.0 0.00 0.66 0.00 96 1010.8
20260510071533 10 267 0.0 0.0 0.00 0.66 0.00 96 1010.8
20260510070031 10 267 0.0 0.0 0.00 0.66 0.00 96 1011.0
20260510064544 10 267 0.0 0.0 0.00 0.66 0.00 96 1011.0
20260510063029 10 267 0.0 0.0 0.00 0.66 0.00 96 1011.0
20260510061531 10 267 0.0 0.0 0.00 0.66 0.00 96 1011.3
20260510060029 10 267 0.0 0.0 0.00 0.66 0.00 96 1011.0
20260510054527 10 267 0.0 0.0 0.00 0.71 0.00 96 1010.8
20260510053039 10 267 0.0 0.0 0.00 0.71 0.00 96 1010.8
20260510051537 10 267 0.0 0.0 0.00 0.71 0.00 96 1010.9
20260510050022 10 267 0.0 0.0 0.00 0.71 0.00 96 1011.0
20260510044522 10 267 0.0 0.0 0.00 0.71 0.00 96 1011.1
20260510043021 10 267 0.0 0.0 0.00 0.71 0.00 96 1011.1
20260510041520 10 267 0.0 0.0 0.00 0.71 0.00 96 1011.1
20260510040018 10 267 0.0 0.0 0.00 0.71 0.71 96 1011.2
20260510034517 10 267 0.0 0.0 0.00 0.71 0.71 96 1011.0
20260510033016 10 267 0.0 0.0 0.00 0.71 0.71 96 1010.7
20260510031523 10 267 0.0 1.6 0.00 0.71 0.71 96 1010.6
20260510030015 10 267 0.0 0.0 0.00 0.71 0.71 96 1010.9
20260510024515 10 267 0.0 0.0 0.00 0.71 0.71 95 1011.1
20260510023014 10 267 0.0 0.0 0.00 0.71 0.71 95 1011.0
20260510021521 10 267 0.0 0.0 0.00 0.71 0.71 95 1010.8
20260510020014 10 267 0.0 0.0 0.00 0.71 0.71 95 1010.8
20260510014513 10 267 0.0 0.0 0.00 0.71 0.71 95 1010.9
20260510013012 10 267 0.0 0.0 0.00 0.71 0.71 95 1010.7
20260510011512 10 267 0.0 0.0 0.00 0.71 0.71 95 1010.7
20260510010011 11 267 0.0 0.0 0.00 0.71 0.71 94 1010.3
20260510004510 11 267 0.0 0.0 0.00 0.71 0.71 94 1010.1
20260510003010 11 267 0.0 0.0 0.00 0.71 0.71 95 1010.3
20260510001509 11 267 0.0 0.0 0.00 0.71 0.71 95 1010.1
20260510000008 11 267 0.0 0.0 0.00 0.71 0.71 95 1010.1
20260509234508 11 267 0.0 0.0 0.00 0.71 0.71 95 1009.9
20260509233007 11 267 0.0 0.0 0.00 0.71 0.71 94 1009.9
20260509231507 12 267 0.0 1.6 0.00 0.71 0.71 94 1009.9
20260509230006 12 257 0.0 1.6 0.00 0.71 0.71 94 1009.9
20260509224504 12 257 0.0 0.0 0.00 0.71 0.71 95 1010.0
20260509223004 12 257 0.0 0.0 0.05 0.71 0.71 94 1010.2
20260509221503 12 257 0.0 0.0 0.10 0.71 0.71 94 1010.2